www.pogodaiklimat.ru

Погода и климат >> Архив погоды >> Украина >> Ильичевск


ПОГОДА в Ильичевске

  • Прогноз погоды в Ильичевске
  • Монитор погоды в Ильичевске

АРХИВ ПОГОДЫ в Ильичевске

Время (UTC), дата Ветер
(напр.,м/с)
 
Видим.   Явления Облачность Т
(С)
Тd
(С)
f
(%)
Тe
(С)
Тes
(С)
Комфортность P
(гПа)
Po
(гПа)
Тmin
(С)
Tmax
(С)
R
(мм)
R24
(мм)
S
(см)
00 18.06 СЗ 2 23 км ясно +23.1 +15.7 63 +27 +27 душно 1015.2 1013.0
03 18.06 СЗ 3 20 км ясно +22.1 +15.9 68 +26 +26 душно 1015.1 1012.9
06 18.06 СВ 3 14 км ясно +26.1 +15.2 51 +29 +36 жарко 1015.8 1013.6 +21.8
09 18.06 ЮВ 2 50 км 3/3 600 м
[Cu med, cong]
+27.4 +16.4 51 +31 +43 душно 1016.5 1014.3
12 18.06 ЮВ 4 50 км 3/3 600 м
[Cu med, cong]
+28.1 +16.4 49 +32 +39 душно 1015.4 1013.2
15 18.06 Ю 2 50 км ясно +27.5 +16.8 52 +31 +36 душно 1013.8 1011.6
18 18.06 З 2 30 км ясно +26.6 +11.1 38 +28 +28 жарко 1014.0 1011.8 +29.6
21 18.06 З 2 50 км ясно +26.3 +13.1 44 +28 +28 жарко 1014.6 1012.4
00 19.06 СЗ 3 20 км ясно +22.9 +14.8 60 +27 +27 душно 1014.0 1011.8
03 19.06 С 3 20 км ясно +22.7 +18.3 76 +28 +28 душно 1014.1 1011.9
06 19.06 СВ 4 30 км ясно +26.2 +20.1 69 +32 +38 очень
душно
1014.5 1012.3 +22.3
09 19.06 В 2 30 км 4/4 600 м
[Cu med, cong]
+28.4 +20.2 61 +35 +46 очень
душно
1014.8 1012.6
12 19.06 ЮВ 2 50 км 5/5 600 м
[Cu med, cong]
+29.2 +20.6 60 +36 +44 очень
душно
1013.4 1011.2
15 19.06 СЗ 3 50 км 8/6 750 м
[Cb calv Ac lent]
+29.8 +17.6 48 +34 +35 очень
душно
1012.5 1010.3
18 19.06 СЗ 3 50 км 6/6 720 м
[Sc]
+27.3 +16.6 52 +31 +31 душно 1012.2 1010.0 +31.1
21 19.06 СЗ 2 30 км 4/4 600 м
[Sc]
+25.1 +18.8 68 +30 +30 душно 1012.5 1010.3
00 20.06 СВ 2 2300 м ясно +25.9 +19.3 67 +31 +31 очень
душно
1012.3 1010.1
03 20.06 СЗ 1 25 км 8/0
[Ac und Ci fib]
+24.8 +17.2 63 +29 +29 душно 1012.3 1010.1
06 20.06 СВ 3 35 км 8/0
[Ci]
+27.7 +17.3 53 +32 +38 очень
душно
1012.4 1010.2 +24.7
09 20.06 В 3 50 км 8/3 600 м
[Cu med, cong Ci]
+30.1 +15.8 42 +33 +42 душно 1012.5 1010.3
12 20.06 Ю 2 30 км 8/3 600 м
[Cu med, cong Ci]
+28.2 +20.0 61 +34 +44 очень
душно
1011.9 1009.7
15 20.06 Ю 3 40 км 8/3 600 м
[Cu med, cong Ci]
+29.2 +18.3 52 +34 +36 очень
душно
1011.2 1009.0
18 20.06 СЗ 1 50 км 8/5 600 м
[Sc diur, vesp Ci]
+27.6 +14.6 45 +30 +30 жарко 1011.9 1009.7 +30.8
21 20.06 СЗ 1 30 км ясно +25.6 +17.3 60 +30 +30 душно 1012.2 1010.0
00 21.06 СЗ 2 20 км 3/0
[Ci]
+24.2 +17.9 68 +28 +28 душно 1012.4 1010.2
06 21.06 СВ 4 17 км 8/3 600 м
[Cu med, cong Ci fib]
+27.5 +21.1 68 +35 +38 очень
душно
1014.1 1011.9 +23.5
09 21.06 В 3 40 км 6/4 600 м
[Sc diur, vesp Ci fib]
+28.3 +19.5 59 +34 +43 очень
душно
1014.5 1012.3
12 21.06 ЮВ 1 22 км 6/3 600 м
[Cu hum Ci fib]
+30.0 +16.4 44 +33 +45 душно 1014.1 1011.9
15 21.06 штиль 0 40 км 3/0
[Ci fib]
+32.0 +11.8 29 +32 +38 жарко 1013.1 1010.9
18 21.06 СЗ 2 14 км 3/0
[Ci fib]
+29.3 +11.8 34 +30 +30 жарко 1013.2 1011.0 +32.7
21 21.06 СЗ 3 18 км 4/3 600 м
[Cu hum Ci fib]
+26.6 +12.6 42 +28 +28 жарко 1013.7 1011.5
00 22.06 СЗ 3 20 км 5/0
[Ac trans]
+25.3 +17.2 61 +29 +29 душно 1013.5 1011.3
06 22.06 СЗ 1 30 км 3/0
[Ac cast]
+28.5 +15.8 46 +32 +39 душно 1014.7 1012.5 +24.2
12 22.06 Ю 4 35 км 3/3 600 м
[Cu med, cong Ci sp]
+29.8 +18.9 52 +35 +42 очень
душно
1015.1 1012.9
18 22.06 Ю 4 28 км 9/4 800 м
[Sc diur, vesp Ac und Ci fib]
+26.9 +21.2 71 +34 +34 очень
душно
1014.7 1012.5 +31.3
00 23.06 ЮВ 3 22 км 3/0
[Ci fib]
+26.0 +20.8 73 +33 +33 очень
душно
1015.2 1013.0
06 23.06 СЗ 2 40 км 6/3 600 м
[Cu med, cong Ac und Ci fib]
+27.3 +17.8 56 +32 +36 очень
душно
1015.5 1013.3 +24.5
12 23.06 Ю 2 50 км 8/3 600 м
[Cu med, cong Ac und Ci fib]
+29.1 +14.9 42 +32 +38 душно 1014.7 1012.5
18 23.06 ЮЗ 1 30 км 9/0
[Ac und Cs]
+27.3 +18.3 58 +32 +32 очень
душно
1013.9 1011.7 +31.2
00 24.06 СВ 2 30 км 3/0
[Ci fib]
+24.2 +18.6 71 +29 +29 душно 1014.6 1012.4
06 24.06 С 3 30 км 6/0
[Ci sp]
+27.7 +15.4 47 +31 +37 душно 1015.0 1012.8 +22.5
12 24.06 В 2 50 км 8/6 870 м
[Cu med, cong Ci]
+30.6 +18.3 48 +35 +41 очень
душно
1016.2 1014.0
18 24.06 С 2 40 км {ливн. осадки} 8/5 600 м
[Sc Ac trans]
+27.7 +16.3 50 +31 +31 душно 1016.6 1014.4 +31.2 0.0

 

Местоположение метеостанции Ильичевск (Одесская область, Украина): широта 46.40 долгота 30.70 высота над уровнем моря 52 м.

В архиве по умолчанию представлена погода в Ильичевске за последнюю неделю. Архивные данные за месяц целиком и за предыдущие месяцы, начиная с января 2011 года, Вы можете получить, выбрав интересующий диапазон дат из раскрывающегося списка и нажав кнопку "Ввод!".


*Определитесь, кто Вы:
робот инопланетянин человек

Внимание! Время в таблицах - всемирное. Для получения местного времени необходимо прибавить поправку, которая равна 2 ч.

Смотрите также архив погоды в соседних городах и на ближайших метеорологических станциях:

Погода в Одессе (Одесская область, Украина) (6 км)
Погода в Белгород-Днестровском (Одесская область, Украина) (35 км)
Погода в Раздельной (Одесская область, Украина) (69 км)
Погода в Сербке (Одесская область, Украина) (69 км)
Погода в Заставе (Одесская область, Украина) (70 км)
Погода в Очакове (Николаевская область, Украина) (70 км)
Погода в Сарате (Одесская область, Украина) (90 км)
Погода в Штефан Водэ (Молдова) (94 км)
Погода в Тирасполе (Молдова) (101 км)
Погода в Вилково (Одесская область, Украина) (108 км)

Пояснения к столбцам:

Ветер - указаны скорость ветра в м/с - средняя за 10 мин, порывы в срок и между сроками (в фигурных скобках) и направление, откуда дует ветер: С - северный, СВ - северо-восточный, В - восточный, ЮВ - юго-восточный, Ю - южный, ЮЗ - юго-западный, З - западный, СЗ - северо-западный.
Видимость - горизонтальная дальность видимости в метрах или километрах. При видимости от 1 до 10 км при отсутствии осадков обычно наблюдается дымка, при ухудшении видимости до 1 км и менее - туман. В сухую погоду видимость может ухудшаться дымом, пылью или мглою.
Явления - указаны атмосферные явления, наблюдавшиеся в срок или в последний час перед сроком; фигурными скобками обозначены явления, наблюдавшиеся между сроками (за 1-3 часа до срока); квадратными скобками обозначены град или гололедные отложения с указанием их диаметра в мм.
Облачность - указаны через наклонную черту общая и нижняя облачность в баллах и высота нижней границы облаков в метрах; квадратными скобками обозначены формы облаков: Ci - перистые, Cs - перисто-слоистые, Cc - перисто-кучевые, Ac - высококучевые, As - высокослоистые, Sc - слоисто-кучевые, Ns - слоисто-дождевые, Cu - кучевые, Cb - кучево-дождевые. Подробнее классификацию облаков см. в Атласе облаков (PDF).
T - Температура воздуха - температура, измеренная на высоте 2 м над землей.
Td - Температура точки росы - температура, при понижении до которой содержащийся в воздухе водяной пар достигнет насыщения.
f - Относительная влажность воздуха - влажноcть воздуха, измеренная на высоте 2 м над землей.
Te - Эффективная температура - температура, которую ощущает одетый по сезону человек в тени. Характеристика душности погоды. При расчете учитывается влияние влажности воздуха и скорости ветра на теплоощущения человека.
Tes - Эффективная температура на солнце - температура, которую ощущает человек, с поправкой на солнечный нагрев. Характеристика знойности погоды. Зависит от высоты солнца над горизонтом, облачности и скорости ветра. Ночью, в пасмурную погоду, а также при ветре 12 м/с и более поправка равна нулю.
P - Атмосферное давление - приведенное к уровню моря атмосферное давление.
Po - Атмосферное давление - измеренное на уровне метеостанции атмосферное давление.
Tmin - Минимальная температура - минимум температуры воздуха на высоте 2 м над землей.
Tmax - Максимальная температура - максимум температуры воздуха на высоте 2 м над землей.
R - Количество осадков - Количество выпавших осадков за период времени, мм. При наведении курсора мыши на число - период времени, за который выпало указанное количество осадков.
R24 - Количество осадков - Количество выпавших осадков за 24 часа, мм.
S - Снежный покров - Высота снежного покрова, см. При наведении курсора мыши на число - состояние снежного покрова и степень покрытия местности в баллах.